[[{"header":{"parameterUnit":"m.s-1","parameterCategory":1,"la1":30.2991,"la2":30.254,"lo1":-89.0895,"lo2":-89.0444,"dy":0.0017,"dx":0.0017,"nx":28,"ny":28,"refTime":"2026-02-25T09:00:00:Z","depth":0,"parameterNumber":2,"parameterNumberName":"U-component_of_WINDS"},"data":[0,0,0,0,0,0,0,0,0,0,0,0,0,0,0,0,0,0,0,0,0,0,0,0,0,0,0,0,0,0,0,0,0,0,0,0,0,0,0,0,0,0,0,0,0,0,0,0,0,0,0,0,0,0,0,0,0,0,3.2284,3.2286,0,3.2481,3.2483,3.2486,3.2519,3.2517,3.2515,3.2514,3.2717,3.2724,3.2731,0,0,0,0,0,0,0,0,0,0,0,0,0,3.1936,3.1942,3.2284,3.2286,3.2289,3.2481,3.2484,3.2486,3.2519,3.2517,3.2515,3.2513,3.2715,3.2723,3.2732,0,0,0,0,0,0,0,0,0,0,0,0,0,3.2105,3.1944,3.2283,3.2328,3.2334,3.248,3.2484,3.2487,3.252,3.2517,3.2514,3.2512,3.2712,3.2722,3.2733,3.2848,0,0,3.2765,3.2769,0,0,0,0,0,0,0,0,3.2096,3.2118,3.2319,3.2325,3.2332,3.2473,3.2436,3.2608,3.252,3.2449,3.2514,3.2511,3.2638,3.2654,3.2697,3.2858,3.2867,3.2766,3.2772,3.2777,3.278,0,0,0,0,0,0,0,3.2084,3.211,3.2362,3.2322,3.233,3.2339,3.236,3.2468,3.2556,3.2455,3.2458,3.2481,3.2641,3.2687,3.2702,3.287,3.2765,3.2775,3.2781,3.2785,3.3134,3.3137,0,0,0,0,0,0,3.2064,3.21,3.2356,3.2368,3.2205,3.2347,3.2371,3.243,3.2554,3.2571,3.2483,3.2482,3.267,3.269,3.2709,3.2852,3.2777,3.2786,3.2792,3.3131,3.3135,3.3138,0,0,0,0,0,0,3.2056,3.2087,3.2348,3.2235,3.2269,3.2356,3.2422,3.2436,3.2481,3.2575,3.2591,3.2514,3.2669,3.2695,3.2813,3.2859,3.2791,3.2801,3.3128,3.3132,3.3136,3.3138,0,0,0,0,0,0,3.2046,3.2084,3.2128,3.2235,3.2274,3.2448,3.2425,3.2441,3.2499,3.2499,3.2608,3.2624,3.2669,3.2797,3.2824,3.2873,3.2809,3.3124,3.313,3.3135,3.3134,3.3142,3.3149,0,0,0,0,0,3.2034,3.2121,3.213,3.2161,3.2332,3.245,3.2473,3.2523,3.2503,3.2548,3.2609,3.262,3.285,3.2809,3.2839,3.2892,3.3121,3.3128,3.3135,3.3131,3.3141,3.3149,0,0,0,0,0,0,3.2018,3.2136,3.2147,3.2272,3.2351,3.2456,3.2515,3.2531,3.2617,3.2614,3.2673,3.2697,3.2812,3.2865,3.2816,3.301,3.2984,3.2997,3.2971,3.2981,3.2988,3.2973,3.2818,0,0,0,0,0,3.2028,3.2115,3.2214,3.2314,3.2353,3.2427,3.2481,3.2512,3.2596,3.263,3.2699,3.278,3.2871,3.2929,3.3018,3.3142,3.3166,3.3194,3.3201,3.3206,3.3216,3.3285,3.3298,3.316,3.316,3.316,0,0,3.2052,3.2127,3.2178,3.2313,3.2378,3.2465,3.2455,3.2548,3.2614,3.2644,3.276,3.2813,3.2908,3.303,3.3087,3.3077,3.326,3.3215,3.3218,3.3226,3.3293,3.3306,3.3318,3.3165,3.3164,3.3163,0,0,3.2139,3.2205,3.2296,3.2361,3.2459,3.2507,3.2529,3.2632,3.2668,3.2785,3.2809,3.2888,3.3043,3.311,3.3163,3.3276,3.3289,3.3303,3.334,3.3407,3.3418,3.3427,3.3466,3.348,3.3313,3.3313,3.3313,0,3.2156,3.2289,3.234,3.2433,3.2491,3.2522,3.2614,3.2674,3.2796,3.2836,3.2823,3.3017,3.3083,3.322,3.3248,3.3291,3.3317,3.329,3.3412,3.3422,3.3432,3.347,3.3485,3.3314,3.3314,3.3314,3.3314,0,3.2304,3.2396,3.2457,3.2573,3.2639,3.273,3.2796,3.2856,3.2882,3.2932,3.305,3.3131,3.3236,3.3271,3.3298,3.3412,3.3402,3.34,3.3375,3.3445,3.3482,3.3497,3.3315,3.3315,3.3315,3.3314,0,0,3.2386,3.2529,3.2551,3.2603,3.2714,3.2786,3.2879,3.2981,3.3031,3.3114,3.3193,3.3324,3.3322,3.3383,3.3418,3.3476,3.3558,3.3467,3.347,3.348,3.3688,3.3688,3.3704,3.3568,3.3571,3.3574,3.368,0,3.2485,3.2651,3.27,3.284,3.2925,3.2956,3.3037,3.3113,3.3163,3.3242,3.3297,3.3388,3.3379,3.3416,3.3475,3.3535,3.3601,3.3529,3.3642,3.3646,3.3616,3.3723,3.3724,3.382,3.3694,3.3697,3.3699,0,3.2623,3.2708,3.2855,3.2954,3.2992,3.3064,3.3161,3.3237,3.3324,3.3356,3.3424,3.3453,3.3551,3.3522,3.3658,3.3608,3.3657,3.3694,3.3699,3.371,3.3675,3.3737,3.3852,3.3866,3.3722,3.372,3.3718,0,3.2666,3.2817,3.2925,3.297,3.3088,3.3138,3.3189,3.3274,3.3332,3.3418,3.3456,3.3552,3.3604,3.3677,3.3732,3.3706,3.3863,3.3838,3.3891,3.389,3.3922,3.3919,3.4046,3.3956,3.3956,3.3955,3.3955,0,3.277,3.2859,3.2946,3.3012,3.3113,3.3169,3.3267,3.332,3.3395,3.3472,3.3505,3.3577,3.3645,3.3726,3.377,3.3875,3.3899,3.3927,3.3937,3.3923,3.3919,3.3955,3.395,3.3959,3.3959,3.3958,3.3957,0,3.2835,3.2897,3.3016,3.3118,3.3146,3.3215,3.3303,3.3368,3.3419,3.3516,3.3542,3.3622,3.3719,3.378,3.3904,3.3933,3.4048,3.4057,3.4018,3.4023,3.4072,3.4066,3.4225,3.4249,3.4144,3.4145,3.4146,0,3.2897,3.2966,3.3075,3.3129,3.3181,3.3267,3.3327,3.3385,3.3445,3.3549,3.3602,3.3701,3.3783,3.3936,3.4005,3.41,3.4111,3.416,3.4125,3.4109,3.411,3.4105,3.4111,3.4165,3.4166,3.4167,3.4167,0,3.3,3.3027,3.3111,3.3206,3.3275,3.3353,3.343,3.3473,3.3544,3.361,3.3709,3.3773,3.3898,3.3996,3.4097,3.415,3.4171,3.4178,3.4195,3.4181,3.4155,3.4168,3.4032,3.4174,3.4173,3.4173,3.4172,3.4172,3.3064,3.3127,3.3213,3.3306,3.337,3.3442,3.3508,3.3567,3.365,3.3756,3.3786,3.3889,3.3975,3.4112,3.4168,3.4249,3.4243,3.4268,3.4274,3.4279,3.4279,3.4143,3.4268,3.4268,3.4268,3.4268,3.4268,0,3.3168,3.3225,3.331,3.3417,3.3489,3.3502,3.3589,3.3648,3.3738,3.3817,3.3896,3.401,3.4105,3.4181,3.4279,3.433,3.4341,3.4353,3.4349,3.4361,3.428,3.4255,3.4342,3.4342,3.4342,3.4342,3.4342,3.4342,3.323,3.3336,3.3373,3.3512,3.3569,3.367,3.3718,3.3784,3.3846,3.3971,3.405,3.4099,3.4177,3.428,3.4368,3.4388,3.4422,3.4431,3.4453,3.4375,3.4367,3.4359,3.4336,3.4439,3.4439,3.4528,3.4528,3.4529]},{"header":{"parameterUnit":"m.s-1","parameterCategory":1,"la1":30.2991,"la2":30.254,"lo1":-89.0895,"lo2":-89.0444,"dy":0.0017,"dx":0.0017,"nx":28,"ny":28,"refTime":"2026-02-25T09:00:00:Z","depth":0,"parameterNumber":3,"parameterNumberName":"V-component_of_WINDS"},"data":[0,0,0,0,0,0,0,0,0,0,0,0,0,0,0,0,0,0,0,0,0,0,0,0,0,0,0,0,0,0,0,0,0,0,0,0,0,0,0,0,0,0,0,0,0,0,0,0,0,0,0,0,0,0,0,0,0,0,5.6792,5.6796,0,5.7085,5.7088,5.7092,5.714,5.7137,5.7135,5.7132,5.743,5.744,5.745,0,0,0,0,0,0,0,0,0,0,0,0,0,5.6273,5.6282,5.6792,5.6796,5.68,5.7084,5.7088,5.7092,5.714,5.7137,5.7134,5.7131,5.7427,5.7439,5.7451,0,0,0,0,0,0,0,0,0,0,0,0,0,5.6525,5.6285,5.6792,5.6858,5.6867,5.7084,5.7089,5.7093,5.7141,5.7137,5.7133,5.713,5.7423,5.7438,5.7453,5.7624,0,0,5.75,5.7507,0,0,0,0,0,0,0,0,5.6511,5.6544,5.6844,5.6854,5.6864,5.7072,5.7014,5.7271,5.7142,5.7037,5.7132,5.7128,5.7314,5.7338,5.7401,5.7638,5.765,5.7501,5.7511,5.7517,5.7522,0,0,0,0,0,0,0,5.6493,5.6532,5.6908,5.6849,5.6861,5.6872,5.6904,5.7063,5.7193,5.7046,5.705,5.7084,5.7319,5.7386,5.7409,5.7655,5.7501,5.7515,5.7524,5.753,5.8045,5.8049,0,0,0,0,0,0,5.6464,5.6517,5.6899,5.6917,5.6674,5.6884,5.692,5.7009,5.7191,5.7216,5.7087,5.7085,5.7362,5.739,5.7419,5.7631,5.7517,5.7532,5.7541,5.8041,5.8046,5.8051,0,0,0,0,0,0,5.6453,5.6498,5.6887,5.6718,5.6769,5.6898,5.6997,5.7017,5.7085,5.7223,5.7246,5.7132,5.736,5.7397,5.7573,5.7642,5.7539,5.7553,5.8035,5.8042,5.8048,5.8056,0,0,0,0,0,0,5.6437,5.6493,5.656,5.6719,5.6777,5.7036,5.7001,5.7025,5.7111,5.7112,5.7271,5.7294,5.736,5.7549,5.7588,5.7662,5.7565,5.803,5.8039,5.8046,5.805,5.8062,5.8072,0,0,0,0,0,5.6419,5.655,5.6563,5.6609,5.6864,5.704,5.7073,5.7147,5.7117,5.7185,5.7273,5.7289,5.7628,5.7567,5.7611,5.769,5.8026,5.8036,5.8046,5.8045,5.806,5.8072,0,0,0,0,0,0,5.6396,5.6572,5.6589,5.6776,5.6893,5.7048,5.7136,5.716,5.7287,5.7282,5.7367,5.7403,5.7573,5.7649,5.7578,5.7864,5.7824,5.7844,5.7809,5.7824,5.7835,5.7814,5.7577,0,0,0,0,0,5.6412,5.6542,5.6689,5.6839,5.6897,5.7006,5.7086,5.7132,5.7256,5.7306,5.7407,5.7526,5.766,5.7746,5.7876,5.8061,5.8096,5.8137,5.8148,5.8156,5.8172,5.8275,5.8295,5.8084,5.8084,5.8083,0,0,5.6448,5.6561,5.6637,5.6838,5.6934,5.7065,5.7048,5.7187,5.7285,5.7327,5.7499,5.7577,5.7715,5.7896,5.798,5.7964,5.8238,5.8169,5.8175,5.8186,5.8287,5.8307,5.8325,5.809,5.8089,5.8088,0,0,5.6581,5.6679,5.6816,5.6912,5.7058,5.7129,5.7161,5.7314,5.7367,5.7541,5.7575,5.7691,5.792,5.8017,5.8096,5.8264,5.8283,5.8304,5.8362,5.8461,5.8478,5.8493,5.8553,5.8574,5.8319,5.8319,5.8319,0,5.6608,5.6807,5.6883,5.7021,5.7108,5.7152,5.729,5.738,5.756,5.7619,5.7598,5.7884,5.7981,5.8184,5.8225,5.8288,5.8327,5.8287,5.847,5.8486,5.8501,5.8559,5.8581,5.832,5.832,5.832,5.832,0,5.6832,5.697,5.7063,5.7236,5.7333,5.7471,5.7566,5.7655,5.7692,5.7766,5.7941,5.8058,5.8213,5.8264,5.8302,5.8473,5.8458,5.8452,5.8414,5.8521,5.8577,5.86,5.8323,5.8322,5.8322,5.8321,0,0,5.6961,5.7173,5.7206,5.7285,5.7448,5.7556,5.7694,5.7846,5.7921,5.8043,5.8161,5.8352,5.8348,5.8437,5.8486,5.8573,5.8698,5.8557,5.8561,5.8579,5.8894,5.8898,5.8923,5.8711,5.8716,5.872,5.8882,0,5.7113,5.7364,5.7435,5.7645,5.7773,5.7816,5.7937,5.8049,5.8121,5.8239,5.8317,5.8452,5.8435,5.849,5.8577,5.8664,5.8763,5.8653,5.8822,5.8827,5.8787,5.8952,5.8958,5.9106,5.8905,5.8909,5.8911,0,5.7325,5.7452,5.7675,5.7821,5.7878,5.7985,5.813,5.8242,5.837,5.8416,5.8515,5.8556,5.8701,5.8654,5.8855,5.8779,5.8852,5.8904,5.8912,5.8931,5.8876,5.8977,5.9155,5.9177,5.8947,5.8944,5.8941,0,5.7397,5.7623,5.7786,5.7852,5.8026,5.8101,5.8177,5.8301,5.8387,5.8513,5.8569,5.8709,5.8786,5.8894,5.8971,5.8929,5.9165,5.9124,5.9207,5.9205,5.9256,5.9252,5.9449,5.9301,5.9301,5.93,5.93,0,5.756,5.7695,5.7821,5.7921,5.8073,5.8153,5.8301,5.8379,5.8488,5.8604,5.8648,5.8755,5.885,5.897,5.903,5.9188,5.9222,5.9262,5.9277,5.926,5.9254,5.9309,5.9301,5.9306,5.9305,5.9304,5.9303,0,5.7666,5.7756,5.7936,5.8086,5.8127,5.8233,5.8361,5.8459,5.8531,5.8677,5.8716,5.8829,5.8972,5.9059,5.924,5.9281,5.9454,5.9464,5.9412,5.9419,5.9497,5.9488,5.9737,5.9774,5.96,5.9601,5.9602,0,5.7766,5.7871,5.8032,5.8113,5.8189,5.8319,5.8407,5.8489,5.8579,5.8732,5.8811,5.8957,5.9078,5.9304,5.9403,5.9541,5.9555,5.9633,5.9576,5.9555,5.9557,5.9551,5.9561,5.9642,5.9644,5.9645,5.9646,0,5.7932,5.7971,5.8097,5.8238,5.8342,5.8458,5.8572,5.8635,5.8736,5.8835,5.8982,5.9076,5.926,5.9404,5.9551,5.9628,5.9654,5.9663,5.9689,5.9673,5.9638,5.9659,5.9438,5.9657,5.9656,5.9655,5.9655,5.9654,5.8039,5.8134,5.8262,5.8401,5.8495,5.8601,5.8701,5.8786,5.891,5.9068,5.9108,5.9262,5.9385,5.9585,5.9665,5.9786,5.9774,5.9813,5.9823,5.9831,5.9833,5.9618,5.9813,5.9812,5.9812,5.9812,5.9812,0,5.8208,5.8292,5.8419,5.8578,5.8687,5.8702,5.8829,5.8919,5.9054,5.9168,5.9286,5.9454,5.9594,5.9702,5.9845,5.9921,5.9937,5.9956,5.9952,5.9969,5.9835,5.9798,5.9941,5.9941,5.9941,5.9941,5.9941,5.9941,5.8309,5.8471,5.8525,5.8734,5.8817,5.8969,5.904,5.9138,5.9229,5.9415,5.9532,5.9601,5.9713,5.9864,5.9992,6.0021,6.0071,6.0089,6.0119,5.9992,5.9978,5.9965,5.9931,6.0099,6.0099,6.0243,6.0244,6.0245]}]]